Location: Baller�as
(41.9020°N, 0.1554°W)
Time: 01:04:02
(UTC+00:00)

Cosmos 1666 Rocket - Pass Details

Date: 10 August 2020
Orbit: 605 x 632 km, 82.5° (Epoch: 22 September)

Event Time Altitude Azimuth Distance (km) Brightness Sun altitude
Exits shadow 20:53:52 - 198° (SSW) 2,146 6.1 -17.8°
Reaches altitude 10° 20:54:22 10° 199° (SSW) 1,946 5.9 -17.8°
Maximum altitude 20:58:37 60° 280° (W) 693 4.0 -18.4°
Drops below altitude 10° 21:02:55 10° 1° (N) 1,967 6.7 -19.0°
Sets 21:05:11 0° 5° (N) 2,878 7.6 -19.3°
